OpenBCM V1.08-5-g2f4a (Linux)

Packet Radio Mailbox

IZ3LSV

[San Dona' di P. JN]

 Login: GUEST





  
I0OJJ  > KEPS     28.11.25 01:28l 318 Lines 15028 Bytes #111 (0) @ AMSAT
BID : ORB25332.1
Read: GUEST
Subj: 2Line Orbital Elements 25332.AMSAT
Path: IZ3LSV<DB0ERF<DK0WUE<PI8ZTM<VK2IO<VK2RZ<IR0AAB<I0OJJ<I0OJJ
Sent: 251128/0021z @:I0OJJ.ITA.EU [Rome] obcm1.08-11-2-gbfe9

>From i0ojj%i0ojj.ita.eu@i0ojj.ampr.org Fri Nov 28 01:21:07 2025
Received: from i0ojj.ampr.org by i0ojj.ampr.org (JNOS2.0q) with SMTP
	id AA17045423 ; Fri, 28 Nov 2025 01:21:07 +0100
Message-Id: <ORB25332.1@i0ojj.bbs>
>From: i0ojj@i0ojj.ita.eu
X-JNOS-User-Port: Telnet   (i0ojj @ 44.134.109.10)  -> Sending message

From: I0OJJ @ I0OJJ.ITA.EU (Gustavo)
To:   KEPS @ AMSAT
X-Info: This message was generated automatically


QST de W1STR

AMSAT Orbital Elements for Amateur Satellites in TLE Format
>From Orbital Analysis Office
New England Sci-Tech STEM Education Center
Natick MA November 28, 2025
To all radio amateurs


These element sets describe the orbits of various satellites 
in use by the amateur radio community. For details see:
www.amsat.org/keplerian-elements-formats/

A daily update of element sets is available at:
www.amsat.org/tle/daily-bulletin.txt
or without bulletin text:
www.amsat.org/tle/dailytle.txt


AO-07
1 07530U 74089B   25331.25531491 -.00000035  00000-0  73961-4 0  9996
2 07530 101.9972 337.3600 0012261 155.7358 270.0751 12.53693685335218
UO-11
1 14781U 84021B   25331.14719289  .00001788  00000-0  19079-3 0  9994
2 14781  97.7792 294.4210 0008876 125.1063 235.0988 14.90060908227039
AO-27
1 22825U 93061C   25331.12516011  .00000155  00000-0  76137-4 0  9998
2 22825  98.7165  33.3539 0007899 340.4511  19.6368 14.30868113678104
FO-29
1 24278U 96046B   25331.17245857 -.00000033  00000-0  57293-5 0  9999
2 24278  98.5472 202.3957 0348822 260.4606  95.6961 13.53261306445840
GO-32
1 25397U 98043D   25330.90148781  .00000113  00000-0  69040-4 0  9999
2 25397  98.9911 313.7491 0002320  82.7892 277.3550 14.24370238422535
ISS
1 25544U 98067A   25331.18970139  .00009924  00000-0  18731-3 0  9999
2 25544  51.6312 219.4533 0003813 172.8713 187.2330 15.49112807540440
NO-44
1 26931U 01043C   25331.29920773  .00000212  00000-0  11031-3 0  9996
2 26931  67.0521  46.4084 0007381 270.9921  89.0335 14.31841803261548
SO-50
1 27607U 02058C   25331.28864474  .00001882  00000-0  24323-3 0  9990
2 27607  64.5548  33.3506 0071402 299.4518  59.9475 14.82295350234522
CO-55
1 27844U 03031E   25330.99314583  .00000427  00000-0  20416-3 0  9996
2 27844  98.6770 337.0991 0010488  56.5785 303.6396 14.24159051162891
CO-57
1 27848U 03031J   25330.95202680  .00000369  00000-0  18172-3 0  9991
2 27848  98.6800 336.9336 0010546  72.7122 287.5209 14.23470200162603
RS-22
1 27939U 03042A   25331.30125236  .00001619  00000-0  26073-3 0  9993
2 27939  98.3366 145.0917 0011205 183.3791 300.2686 14.72902407185820
CO-58
1 28895U 05043F   25331.21358041  .00002171  00000-0  35513-3 0  9993
2 28895  98.2716 118.0304 0015255 124.2420 236.0234 14.71804389 72034
CO-65
1 32785U 08021C   25331.23319195  .00005902  00000-0  40070-3 0  9993
2 32785  97.8069 304.1068 0009691   6.6007 353.5346 15.06750515954756
CO-66
1 32791U 08021J   25330.95740904  .00019043  00000-0  77675-3 0  9996
2 32791  97.7444 315.5704 0002111 350.3892   9.7303 15.24482055956399
RS-30
1 32953U 08025A   25331.25870955  .00000049  00000-0  27931-3 0  9990
2 32953  82.5002 121.0515 0019499  34.6147 325.6198 12.43171415794602
SRMSAT
1 37841U 11058D   25330.35480331  .00000450  00000-0  10071-3 0  9999
2 37841  19.9706 207.1224 0011864 132.5023  22.9076 14.11503376729129
ZACUBE-1
1 39417U 13066B   25330.83755497  .00007156  00000-0  58762-3 0  9991
2 39417  97.8046 287.3608 0040944 199.0265 160.9431 14.98844764650399
Delfi-N3xt
1 39428U 13066N   25331.24538588  .00007656  00000-0  72465-3 0  9990
2 39428  97.8324 247.2440 0080141 155.9549 204.5445 14.91483684644484
GOMX-1
1 39430U 13066Q   25331.23045931  .00002587  00000-0  39974-3 0  9993
2 39430  97.6607 179.3257 0130989   6.4262 353.8586 14.68474226640260
LO-74
1 39440U 13066AA  25331.31250940  .00006033  00000-0  58512-3 0  9990
2 39440  97.8686 275.0086 0059539 337.8086  22.0557 14.91712698646870
AO-73
1 39444U 13066AE  25330.90551263  .00009114  00000-0  62558-3 0  9998
2 39444  97.8059 293.9965 0039297 167.7615 192.4576 15.05585316649181
DTUSAT-2
1 40030U 14033W   25331.17906841  .00009756  00000-0  58192-3 0  9993
2 40030  98.0753 311.7752 0007610 191.4479 168.6578 15.11358073622135
EO-80
1 40032U 14033Y   25331.19048835  .00008905  00000-0  53040-3 0  9999
2 40032  98.0634 311.2031 0009153 132.4685 227.7319 15.11426073622112
LILACSAT-2
1 40908U 15049K   25331.31544265  .00017166  00000-0  37717-3 0  9993
2 40908  97.4934 356.2293 0006191 265.2008  94.8533 15.44069395564529
IO-86
1 40931U 15052B   25151.18580175  .00001241  00000-0  78118-4 0  9996
2 40931   6.0006  24.0987 0012733 338.8432  21.1169 14.78805930523159
Horyu-4
1 41340U 16012D   25331.28946772  .00044664  00000-0  79847-3 0  9993
2 41340  30.9947  55.9034 0006077  80.3486 279.7849 15.48726230539158
Lapan A3
1 41603U 16040E   25331.27465641  .00004446  00000-0  14891-3 0  9998
2 41603  97.1432 329.3960 0011567  28.8493 331.3386 15.31372555523899
CAS-2T
1 41847U 16066G   25331.17253775  .00001208  00000-0  17878-3 0  9999
2 41847  98.4053  44.0644 0344445  22.3291 339.2493 14.44078141475632
TechnoSat
1 42829U 17042E   25330.95332954  .00004110  00000-0  30676-3 0  9993
2 42829  97.4019 131.8447 0019461  65.3012 295.0237 15.03219982456309
AO-91
1 43017U 17073E   25330.39419438  .00013546  00000-0  64622-3 0  9999
2 43017  97.4950 196.9659 0161438 307.0126  51.6422 15.08334216434776
S-Net D
1 43186U 18014G   25331.29055166  .00006829  00000-0  37876-3 0  9993
2 43186  97.5475 232.5063 0009083   9.1651 350.9744 15.14060661428189
S-Net B
1 43187U 18014H   25331.29836289  .00006299  00000-0  34984-3 0  9995
2 43187  97.5481 232.4937 0009599   4.1523 355.9786 15.14036850428185
S-Net A
1 43188U 18014J   25331.29032442  .00006963  00000-0  38601-3 0  9993
2 43188  97.5492 232.6595 0009545   4.4498 355.6817 15.14067044428186
S-Net C
1 43189U 18014K   25331.30127895  .00006246  00000-0  34690-3 0  9991
2 43189  97.5509 232.7134 0010687 356.1960   3.9189 15.14031943426739
Ten-Koh
1 43677U 18084G   25330.98678426  .00004498  00000-0  35101-3 0  9999
2 43677  98.0716 149.9729 0009315  67.6575 292.5635 15.01658222385803
PO-101
1 43678U 18084H   25331.30286821  .00002681  00000-0  22463-3 0  9990
2 43678  98.1034 154.1461 0007293  83.6568 276.5485 14.99317491385959
QO-100
1 43700U 18090A   25331.15752133  .00000164  00000-0  00000-0 0  9994
2 43700   0.0142 282.0736 0002553   3.4957 223.3110  1.00272471 25658
MinXSS-2
1 43758U 18099A   25331.16431212  .00027599  00000-0  85427-3 0  9999
2 43758  97.4814  38.3298 0008846 272.3990  87.6239 15.33404797383038
AO-95
1 43770U 18099N   25331.14149845  .00012907  00000-0  57818-3 0  9999
2 43770  97.4693  27.5444 0009238 346.9602  13.1393 15.21346018382441
SNUSat 2
1 43782U 18099AA  25331.10260863  .00011278  00000-0  55924-3 0  9998
2 43782  97.4377  22.7803 0009777 283.7683  76.2462 15.17854542382330
SnugLite
1 43784U 18099AC  25331.13258324  .00013682  00000-0  60648-3 0  9992
2 43784  97.4186  22.8024 0001632 289.4634  70.6426 15.21727284382534
ITASat 1
1 43786U 18099AE  25331.11959151  .00008311  00000-0  43861-3 0  9999
2 43786  97.4344  21.7590 0012917 342.8394  17.2400 15.15719122382267
EAGLET 1
1 43790U 18099AJ  25330.61248231  .00006349  00000-0  38467-3 0  9993
2 43790  97.4543  20.5652 0010722 332.4325  27.6336 15.10880937381721
ESEO
1 43792U 18099AL  25331.04097687  .00002084  00000-0  15744-3 0  9995
2 43792  97.4271  11.8662 0010284 309.9091  50.1230 15.03395799381427
JO-97
1 43803U 18099AX  25330.68950116  .00018781  00000-0  72950-3 0  9995
2 43803  97.4443  28.5650 0005243 268.0536  92.0101 15.26107459382669
Suomi 100
1 43804U 18099AY  25331.14988194  .00014222  00000-0  61144-3 0  9994
2 43804  97.4504  27.7371 0009707 272.5611  87.4514 15.22720934382618
ISAT
1 43879U 18111D   25331.28229163  .00035919  00000-0  89223-3 0  9994
2 43879  97.5893 250.3825 0005513 341.5594  18.5451 15.40228689379866
UWE-4
1 43880U 18111E   25331.30251125  .00024216  00000-0  75158-3 0  9992
2 43880  97.5840 247.4128 0009511 344.0510  16.0430 15.33341026379718
Sparrow
1 43881U 18111F   25331.28869114  .00040735  00000-0  94316-3 0  9994
2 43881  97.6078 254.0521 0006467  23.0855 337.0681 15.42322622379981
Prox-1
1 44339U 19036A   25331.25163383  .00013980  00000-0  15841-2 0  9999
2 44339  23.9973  17.2970 0006689 216.3810 143.6234 14.84593122343365
Taurus 1
1 44530U 19059C   25331.30889253  .00008843  00000-0  15233-2 0  9991
2 44530  98.6228 119.3168 0009083 221.6212 138.4301 14.68764718328979
Duchifat 3
1 44854U 19089C   25331.31863315  .00528247  10932-3  15727-2 0  9996
2 44854  36.9291 329.2418 0010066 178.1087 181.9723 15.91350286329679
TO-108
1 44881U 19093C   25331.28135573  .00001174  00000-0  14004-3 0  9990
2 44881  97.7776  43.2576 0014459  36.1144 324.1046 14.86049347321427
FloripaSat 1
1 44885U 19093G   25331.17893525  .00007691  00000-0  60687-3 0  9998
2 44885  97.8054  59.3004 0011782  25.1228 335.0567 15.00955271322319
RS-44
1 44909U 19096E   25330.90877469  .00000026  00000-0  67878-4 0  9992
2 44909  82.5190 114.1283 0216577 257.2376 100.4443 12.79745557276477
SALSAT
1 46495U 20068K   25331.18890106  .00010496  00000-0  41147-3 0  9991
2 46495  97.8782 317.6282 0008826 295.7160  64.3165 15.25935156284511
CSS (TIANHE-1)
1 48274U 21035A   25331.27319927  .00020570  00000-0  26644-3 0  9999
2 48274  41.4669 110.5393 0010766 279.2422  80.7198 15.58329246261611
TUBIN
1 48900U 21059X   25331.25734473  .00395634  65683-4  94688-3 0  9997
2 48900  97.6658 157.3780 0002519 308.3779  51.7270 15.96552658246847
CUTE
1 49263U 21088D   25331.23162532  .00045037  00000-0  61397-3 0  9999
2 49263  97.4360  53.4003 0004854 338.8439  21.2614 15.57383112230882
